Home > Weather > Arden-Arcade > Past weeks

Flag for U.S.A. Weather for the Past 2 Weeks in Arden-Arcade, California, U.S.A.

Now
55 °F

Clear.


Feels Like: 55 °F
Forecast: 46 / 70 °F
Wind: No wind

Location: Mather Field

Current Time: Feb 11, 2016 at 8:30:10 PM

Latest Report: Feb 11, 2016 at 7:45 PM


Visibility: 10 mi

Pressure: 30.15 "Hg

Humidity: 77%

Dew point: 48 °F

Location of Arden-ArcadeLocation

Historic Weather in Arden-Arcade — Graph

°F

Arden-Arcade Temperature Yesterday

Maximum temperature yesterday: 68 °F (at 1:55 PM)
Minimum temperature yesterday: 41 °F (at 5:50 AM)
Average temperature yesterday: 54 °F

High & Low Weather Summary for the Past Weeks

 TemperatureHumidityPressure
High73 °F (Feb 9, 2:45 PM)100% (Jan 27, 10:50 PM)30.48 "Hg (Jan 27, 10:50 PM)
Low32 °F (Feb 3, 2:55 AM)26% (Feb 1, 12:45 PM)29.70 "Hg (Jan 31, 2:45 PM)
Average51 °F76%30.23 "Hg
* Reported Jan 27 6:45 PM — Feb 11 6:45 PM, Arden-Arcade, Weather by CustomWeather, © 2016

Note: Actual official high and low records may vary slightly from our data, if they occured in-between our weather recording intervals... More about our weather records

Advertising

Arden-Arcade Weather History for the Previous 24 Hours

 ConditionsComfort  
Time TempWeatherWind HumidityBarometerVisibility
6:45 PM
Thu, Feb 11
57 °FClear.No wind72%30.15 "Hg10 mi
5:45 PM64 °FPassing clouds.No wind52%30.14 "Hg10 mi
4:45 PM70 °FSunny.No wind46%30.13 "Hg10 mi
3:50 PM72 °FPartly sunny.No wind41%30.12 "Hg10 mi
2:55 PM68 °FPartly sunny.6 mph49%30.13 "Hg10 mi
1:45 PM68 °FPartly sunny.No wind46%30.13 "Hg10 mi
12:45 PM55 °FScattered clouds.No wind77%30.15 "Hg10 mi
11:45 AM66 °FSunny.No wind52%30.18 "Hg10 mi
10:45 AM64 °FSunny.No wind56%30.19 "Hg10 mi
9:50 AM59 °FSunny.No wind68%30.19 "Hg10 mi
8:55 AM54 °FSunny.5 mph77%30.18 "Hg10 mi
7:55 AM48 °FPartly sunny.No wind87%30.19 "Hg10 mi
6:55 AM45 °FPassing clouds.3 mph87%30.17 "Hg10 mi
5:55 AM43 °FClear.No wind93%30.15 "Hg10 mi
4:45 AM45 °FClear.No wind87%30.16 "Hg10 mi
11:30 PM
Wed, Feb 10
45 °FClear.6 mph93%30.17 "Hg10 mi
10:50 PM45 °FClear.3 mph93%30.17 "Hg10 mi
9:45 PM48 °FClear.No wind94%30.16 "Hg10 mi
8:55 PM52 °FClear.No wind82%30.15 "Hg10 mi
Weather by CustomWeather, © 2016

See weather overviewHow to use our weather pages